Flag for U.S.A. Weather past 2 weeks in Honolulu, Hawaii, U.S.A.

Now
73 °F

Passing clouds.


Feels Like: 75 °F
Forecast: 69 / 79 °F
Wind: 10 mph from Northeast

Location: Honolulu International Airport

Current Time: Mar 26, 2015 at 11:03:13 PM

Latest Report: Mar 26, 2015 at 9:53 PM


Visibility: 10 mi

Pressure: 30.18 "Hg

Humidity: 71%

Dew point: 63 °F

Location of HonoluluLocation

Historic Weather in Honolulu — Graph

°F

Honolulu temperature yesterday

Maximum temperature yesterday: 84 °F (at 12:53 PM)
Minimum temperature yesterday: 69 °F (at 5:53 AM)
Average temperature yesterday: 75 °F

Past Weeks' High & Low Weather Summary

 TemperatureHumidityPressure
High85 °F (Mar 23, 1:53 PM)90% (Mar 12, 2:53 AM)30.22 "Hg (Mar 12, 2:53 AM)
Low64 °F (Mar 13, 5:53 AM)40% (Mar 23, 12:53 PM)29.87 "Hg (Mar 12, 4:53 AM)
Average74 °F64%30.07 "Hg
* Reported Mar 11 9:53 PM — Mar 26 9:53 PM, Honolulu, Weather by CustomWeather, © 2015

Note: Actual official high and low records may vary slightly from our data, if they occured in-between our weather recording intervals... More about our weather records

Advertising

Honolulu weather history for previous 24 hours

 ConditionsComfort  
Time TempWeatherWind HumidityBarometerVisibility
9:53 PM
Thu, Mar 26
73 °FPassing clouds.10 mph71%30.18 "Hg10 mi
8:53 PM73 °FPassing clouds.8 mph71%30.17 "Hg10 mi
7:53 PM73 °FPartly cloudy.16 mph74%30.15 "Hg10 mi
6:53 PM74 °FPassing clouds.14 mph67%30.13 "Hg10 mi
5:53 PM76 °FScattered clouds.16 mph64%30.11 "Hg10 mi
4:53 PM76 °FScattered clouds.16 mph64%30.09 "Hg10 mi
3:53 PM79 °FScattered clouds.15 mph58%30.08 "Hg10 mi
2:53 PM79 °FScattered clouds.15 mph58%30.09 "Hg10 mi
1:53 PM79 °FScattered clouds.16 mph58%30.09 "Hg10 mi
12:53 PM78 °FScattered clouds.18 mph58%30.11 "Hg10 mi
11:53 AM78 °FScattered clouds.20 mph58%30.13 "Hg10 mi
10:53 AM76 °FScattered clouds.22 mph60%30.14 "Hg10 mi
9:53 AM75 °FScattered clouds.15 mph62%30.16 "Hg10 mi
8:53 AM73 °FScattered clouds.12 mph69%30.15 "Hg10 mi
7:53 AM71 °FScattered clouds.7 mph73%30.14 "Hg10 mi
6:53 AM69 °FScattered clouds.7 mph79%30.14 "Hg10 mi
5:53 AM70 °FPassing clouds.9 mph76%30.12 "Hg10 mi
4:53 AM69 °FPassing clouds.6 mph79%30.11 "Hg10 mi
3:53 AM70 °FPartly cloudy.8 mph79%30.11 "Hg10 mi
3:00 AM70 °FPassing clouds.No wind78%30.12 "Hg10 mi
2:00 AM70 °FOvercast.7 mph78%30.13 "Hg10 mi
12:53 AM71 °FPartly cloudy.7 mph76%30.15 "Hg10 mi
11:53 PM
Wed, Mar 25
71 °FPartly cloudy.9 mph76%30.15 "Hg10 mi
Weather by CustomWeather, © 2015

See weather overviewHow to use our weather pages